Time,TemperatureF,DewpointF,PressureIn,WindDirection,WindDirectionDegrees,WindSpeedMPH,WindSpeedGustMPH,Humidity,HourlyPrecipIn,Conditions,Clouds,dailyrainin,SoftwareType,DateUTC
2013-03-18 00:04:00,37.8,34.6,30.27,ENE,70,3.0,22.0,88,0.00,,,0.00,Wunderground v.1.15,2013-03-18 07:04:00,
2013-03-18 00:10:00,37.9,34.7,30.27,ENE,71,3.0,3.0,88,0.00,,,0.00,Wunderground v.1.15,2013-03-18 07:10:00,
2013-03-18 00:17:00,38.1,34.9,30.27,East,80,4.0,4.0,88,0.00,,,0.00,Wunderground v.1.15,2013-03-18 07:17:00,
2013-03-18 00:22:00,38.1,34.9,30.27,East,85,4.0,4.0,88,0.00,,,0.00,Wunderground v.1.15,2013-03-18 07:22:00,
2013-03-18 00:28:00,38.1,34.9,30.27,East,85,4.0,6.0,88,0.00,,,0.00,Wunderground v.1.15,2013-03-18 07:28:00,
2013-03-18 00:34:00,38.3,35.1,30.28,East,86,4.0,5.0,88,0.00,,,0.00,Wunderground v.1.15,2013-03-18 07:34:00,
2013-03-18 00:40:00,38.2,35.0,30.28,East,86,4.0,4.0,88,0.00,,,0.00,Wunderground v.1.15,2013-03-18 07:40:00,
2013-03-18 00:45:00,38.2,35.0,30.28,East,86,4.0,5.0,88,0.00,,,0.00,Wunderground v.1.15,2013-03-18 07:45:00,
2013-03-18 00:51:00,37.8,34.3,30.27,East,86,4.0,4.0,87,0.00,,,0.00,Wunderground v.1.15,2013-03-18 07:51:00,
2013-03-18 00:57:00,37.5,34.3,30.27,East,86,3.0,5.0,88,0.00,,,0.00,Wunderground v.1.15,2013-03-18 07:57:00,
2013-03-18 01:03:00,37.3,34.1,30.27,East,86,4.0,5.0,88,0.00,,,0.00,Wunderground v.1.15,2013-03-18 08:03:00,
2013-03-18 01:09:00,37.2,34.3,30.27,East,86,4.0,5.0,89,0.00,,,0.00,Wunderground v.1.15,2013-03-18 08:09:00,
2013-03-18 01:15:00,37.3,34.4,30.26,East,87,4.0,6.0,89,0.00,,,0.00,Wunderground v.1.15,2013-03-18 08:15:00,
2013-03-18 01:20:00,37.3,34.4,30.26,East,87,4.0,5.0,89,0.00,,,0.00,Wunderground v.1.15,2013-03-18 08:20:00,
2013-03-18 01:27:00,37.3,34.4,30.26,East,88,5.0,5.0,89,0.00,,,0.00,Wunderground v.1.15,2013-03-18 08:27:00,
2013-03-18 01:32:00,37.2,34.3,30.26,East,88,5.0,5.0,89,0.00,,,0.00,Wunderground v.1.15,2013-03-18 08:32:00,
2013-03-18 01:37:00,37.1,34.2,30.26,East,88,4.0,6.0,89,0.00,,,0.00,Wunderground v.1.15,2013-03-18 08:37:00,
2013-03-18 01:43:00,37.1,34.2,30.26,East,89,4.0,6.0,89,0.00,,,0.00,Wunderground v.1.15,2013-03-18 08:43:00,
2013-03-18 01:48:00,37.2,34.3,30.26,East,88,4.0,6.0,89,0.00,,,0.00,Wunderground v.1.15,2013-03-18 08:48:00,
2013-03-18 01:54:00,37.1,34.2,30.25,East,88,4.0,5.0,89,0.00,,,0.00,Wunderground v.1.15,2013-03-18 08:54:00,
2013-03-18 01:59:00,37.0,34.1,30.25,East,88,4.0,5.0,89,0.00,,,0.00,Wunderground v.1.15,2013-03-18 08:59:00,
2013-03-18 02:04:00,36.9,34.0,30.25,East,88,4.0,5.0,89,0.00,,,0.00,Wunderground v.1.15,2013-03-18 09:04:00,
2013-03-18 02:10:00,36.9,34.0,30.25,East,88,4.0,5.0,89,0.00,,,0.00,Wunderground v.1.15,2013-03-18 09:10:00,
2013-03-18 02:17:00,36.8,33.9,30.25,East,88,4.0,5.0,89,0.00,,,0.00,Wunderground v.1.15,2013-03-18 09:17:00,
2013-03-18 02:22:00,36.6,33.7,30.25,East,88,3.0,5.0,89,0.00,,,0.00,Wunderground v.1.15,2013-03-18 09:22:00,
2013-03-18 02:27:00,36.6,33.7,30.25,East,88,3.0,5.0,89,0.00,,,0.00,Wunderground v.1.15,2013-03-18 09:27:00,
2013-03-18 02:32:00,36.4,33.5,30.25,East,88,2.0,5.0,89,0.00,,,0.00,Wunderground v.1.15,2013-03-18 09:32:00,
2013-03-18 02:38:00,36.3,33.6,30.25,East,88,2.0,5.0,90,0.00,,,0.00,Wunderground v.1.15,2013-03-18 09:38:00,
2013-03-18 02:44:00,36.3,33.6,30.25,East,88,2.0,5.0,90,0.00,,,0.00,Wunderground v.1.15,2013-03-18 09:44:00,
2013-03-18 02:49:00,36.3,33.6,30.25,East,88,3.0,5.0,90,0.00,,,0.00,Wunderground v.1.15,2013-03-18 09:49:00,
2013-03-18 02:54:00,36.3,33.9,30.25,East,88,2.0,5.0,91,0.00,,,0.00,Wunderground v.1.15,2013-03-18 09:54:00,
2013-03-18 02:59:00,36.3,33.9,30.25,East,88,2.0,5.0,91,0.00,,,0.00,Wunderground v.1.15,2013-03-18 09:59:00,
2013-03-18 03:05:00,36.3,33.9,30.25,East,88,3.0,5.0,91,0.00,,,0.00,Wunderground v.1.15,2013-03-18 10:05:00,
2013-03-18 03:11:00,36.0,33.6,30.25,East,88,3.0,5.0,91,0.00,,,0.00,Wunderground v.1.15,2013-03-18 10:11:00,
2013-03-18 03:16:00,35.7,33.3,30.25,East,88,4.0,5.0,91,0.00,,,0.00,Wunderground v.1.15,2013-03-18 10:16:00,
2013-03-18 03:22:00,35.2,32.8,30.25,East,82,4.0,6.0,91,0.00,,,0.00,Wunderground v.1.15,2013-03-18 10:22:00,
2013-03-18 03:27:00,35.0,32.9,30.25,East,79,4.0,6.0,92,0.00,,,0.00,Wunderground v.1.15,2013-03-18 10:27:00,
2013-03-18 03:32:00,34.9,32.8,30.25,East,79,4.0,5.0,92,0.00,,,0.00,Wunderground v.1.15,2013-03-18 10:32:00,
2013-03-18 03:37:00,34.7,32.9,30.25,East,79,3.0,5.0,93,0.00,,,0.00,Wunderground v.1.15,2013-03-18 10:37:00,
2013-03-18 03:43:00,34.4,32.6,30.25,East,79,3.0,5.0,93,0.00,,,0.00,Wunderground v.1.15,2013-03-18 10:43:00,
2013-03-18 03:49:00,34.5,32.7,30.25,ENE,70,4.0,5.0,93,0.00,,,0.00,Wunderground v.1.15,2013-03-18 10:49:00,
2013-03-18 03:54:00,34.9,33.3,30.25,ENE,71,4.0,7.0,94,0.00,,,0.00,Wunderground v.1.15,2013-03-18 10:54:00,
2013-03-18 03:59:00,35.0,33.2,30.25,ENE,68,5.0,7.0,93,0.00,,,0.00,Wunderground v.1.15,2013-03-18 10:59:00,
2013-03-18 04:05:00,34.9,33.1,30.25,ENE,68,4.0,5.0,93,0.00,,,0.00,Wunderground v.1.15,2013-03-18 11:05:00,
2013-03-18 04:12:00,34.7,32.9,30.24,ENE,68,4.0,5.0,93,0.00,,,0.00,Wunderground v.1.15,2013-03-18 11:12:00,
2013-03-18 04:18:00,34.6,33.1,30.24,ENE,67,3.0,5.0,94,0.00,,,0.00,Wunderground v.1.15,2013-03-18 11:18:00,
2013-03-18 04:23:00,34.9,33.3,30.24,ENE,75,4.0,5.0,94,0.00,,,0.00,Wunderground v.1.15,2013-03-18 11:23:00,
2013-03-18 04:28:00,35.5,33.9,30.24,ENE,67,4.0,5.0,94,0.00,,,0.00,Wunderground v.1.15,2013-03-18 11:28:00,
2013-03-18 04:33:00,35.8,34.0,30.24,ENE,61,4.0,7.0,93,0.00,,,0.00,Wunderground v.1.15,2013-03-18 11:33:00,
2013-03-18 04:38:00,35.8,34.0,30.24,ENE,67,4.0,7.0,93,0.00,,,0.00,Wunderground v.1.15,2013-03-18 11:38:00,
2013-03-18 04:43:00,35.6,33.5,30.23,ENE,68,4.0,5.0,92,0.00,,,0.00,Wunderground v.1.15,2013-03-18 11:43:00,
2013-03-18 04:49:00,35.4,33.3,30.24,ENE,77,4.0,5.0,92,0.00,,,0.00,Wunderground v.1.15,2013-03-18 11:49:00,
2013-03-18 04:55:00,35.3,33.2,30.23,ENE,77,3.0,5.0,92,0.00,,,0.00,Wunderground v.1.15,2013-03-18 11:55:00,
2013-03-18 05:00:00,35.3,33.2,30.23,ENE,78,3.0,5.0,92,0.00,,,0.00,Wunderground v.1.15,2013-03-18 12:00:00,
2013-03-18 05:07:00,35.3,33.2,30.24,ENE,78,3.0,5.0,92,0.00,,,0.00,Wunderground v.1.15,2013-03-18 12:07:00,
2013-03-18 05:13:00,35.4,33.3,30.24,ENE,78,3.0,5.0,92,0.00,,,0.00,Wunderground v.1.15,2013-03-18 12:13:00,
2013-03-18 05:18:00,35.6,33.5,30.24,ENE,78,3.0,5.0,92,0.00,,,0.00,Wunderground v.1.15,2013-03-18 12:18:00,
2013-03-18 05:23:00,35.8,33.4,30.24,ENE,78,3.0,5.0,91,0.00,,,0.00,Wunderground v.1.15,2013-03-18 12:23:00,
2013-03-18 05:28:00,36.0,33.6,30.24,ENE,78,3.0,5.0,91,0.00,,,0.00,Wunderground v.1.15,2013-03-18 12:28:00,
2013-03-18 05:34:00,36.4,34.0,30.25,ENE,78,3.0,5.0,91,0.00,,,0.00,Wunderground v.1.15,2013-03-18 12:34:00,
2013-03-18 05:39:00,36.7,34.0,30.24,ENE,75,3.0,5.0,90,0.00,,,0.00,Wunderground v.1.15,2013-03-18 12:39:00,
2013-03-18 05:44:00,36.9,34.2,30.24,ENE,69,4.0,5.0,90,0.00,,,0.00,Wunderground v.1.15,2013-03-18 12:44:00,
2013-03-18 05:50:00,36.8,33.9,30.24,ENE,71,4.0,5.0,89,0.00,,,0.00,Wunderground v.1.15,2013-03-18 12:50:00,
2013-03-18 05:56:00,36.9,34.0,30.24,ENE,76,4.0,5.0,89,0.00,,,0.00,Wunderground v.1.15,2013-03-18 12:56:00,
2013-03-18 06:02:00,37.0,34.1,30.24,East,80,5.0,7.0,89,0.00,,,0.00,Wunderground v.1.15,2013-03-18 13:02:00,
2013-03-18 06:07:00,37.1,34.2,30.24,East,80,5.0,7.0,89,0.00,,,0.00,Wunderground v.1.15,2013-03-18 13:07:00,
2013-03-18 06:13:00,37.3,34.1,30.24,East,79,6.0,7.0,88,0.00,,,0.00,Wunderground v.1.15,2013-03-18 13:13:00,
2013-03-18 06:19:00,37.6,34.4,30.24,ENE,61,6.0,8.0,88,0.00,,,0.00,Wunderground v.1.15,2013-03-18 13:19:00,
2013-03-18 06:24:00,37.9,34.4,30.25,ENE,65,6.0,7.0,87,0.00,,,0.00,Wunderground v.1.15,2013-03-18 13:24:00,
2013-03-18 06:30:00,37.8,34.3,30.25,ENE,65,5.0,5.0,87,0.00,,,0.00,Wunderground v.1.15,2013-03-18 13:30:00,
2013-03-18 06:36:00,37.6,34.1,30.25,ENE,69,5.0,9.0,87,0.00,,,0.00,Wunderground v.1.15,2013-03-18 13:36:00,
2013-03-18 06:42:00,37.5,34.0,30.24,ENE,75,6.0,6.0,87,0.00,,,0.00,Wunderground v.1.15,2013-03-18 13:42:00,
2013-03-18 06:48:00,37.1,33.6,30.24,East,87,5.0,6.0,87,0.00,,,0.00,Wunderground v.1.15,2013-03-18 13:48:00,
2013-03-18 06:53:00,36.2,32.4,30.24,East,88,4.0,5.0,86,0.00,,,0.00,Wunderground v.1.15,2013-03-18 13:53:00,
2013-03-18 06:59:00,35.3,31.8,30.24,East,94,4.0,5.0,87,0.00,,,0.00,Wunderground v.1.15,2013-03-18 13:59:00,
2013-03-18 07:04:00,35.0,31.8,30.24,East,92,5.0,6.0,88,0.00,,,0.00,Wunderground v.1.15,2013-03-18 14:04:00,
2013-03-18 07:09:00,35.0,32.1,30.24,East,84,6.0,6.0,89,0.00,,,0.00,Wunderground v.1.15,2013-03-18 14:09:00,
2013-03-18 07:15:00,35.2,32.3,30.24,East,88,5.0,6.0,89,0.00,,,0.00,Wunderground v.1.15,2013-03-18 14:15:00,
2013-03-18 07:20:00,35.2,32.3,30.24,East,98,5.0,6.0,89,0.00,,,0.00,Wunderground v.1.15,2013-03-18 14:20:00,
2013-03-18 07:26:00,35.0,32.1,30.24,East,96,5.0,6.0,89,0.00,,,0.00,Wunderground v.1.15,2013-03-18 14:26:00,
2013-03-18 07:31:00,35.0,32.1,30.24,East,92,5.0,6.0,89,0.00,,,0.00,Wunderground v.1.15,2013-03-18 14:31:00,
2013-03-18 07:36:00,35.2,32.6,30.24,East,94,6.0,6.0,90,0.00,,,0.00,Wunderground v.1.15,2013-03-18 14:36:00,
2013-03-18 07:42:00,35.3,32.7,30.25,East,94,5.0,6.0,90,0.00,,,0.00,Wunderground v.1.15,2013-03-18 14:42:00,
2013-03-18 07:47:00,35.5,32.6,30.25,East,94,5.0,7.0,89,0.00,,,0.00,Wunderground v.1.15,2013-03-18 14:47:00,
2013-03-18 07:53:00,35.6,32.7,30.25,East,98,5.0,5.0,89,0.00,,,0.00,Wunderground v.1.15,2013-03-18 14:53:00,
2013-03-18 07:59:00,35.5,32.6,30.25,East,95,5.0,6.0,89,0.00,,,0.00,Wunderground v.1.15,2013-03-18 14:59:00,
2013-03-18 08:04:00,35.5,32.6,30.26,East,99,5.0,5.0,89,0.00,,,0.00,Wunderground v.1.15,2013-03-18 15:04:00,
2013-03-18 08:10:00,35.8,32.9,30.26,East,94,4.0,5.0,89,0.00,,,0.00,Wunderground v.1.15,2013-03-18 15:10:00,
2013-03-18 08:15:00,35.9,33.0,30.26,East,95,4.0,5.0,89,0.00,,,0.00,Wunderground v.1.15,2013-03-18 15:15:00,
2013-03-18 08:21:00,36.1,33.2,30.26,East,93,4.0,5.0,89,0.00,,,0.00,Wunderground v.1.15,2013-03-18 15:21:00,
2013-03-18 08:26:00,36.3,33.4,30.26,East,88,4.0,6.0,89,0.00,,,0.00,Wunderground v.1.15,2013-03-18 15:26:00,
2013-03-18 08:32:00,36.6,33.7,30.26,East,86,4.0,5.0,89,0.00,,,0.00,Wunderground v.1.15,2013-03-18 15:32:00,
2013-03-18 08:38:00,36.8,33.9,30.26,East,84,4.0,5.0,89,0.00,,,0.00,Wunderground v.1.15,2013-03-18 15:38:00,
2013-03-18 08:44:00,37.2,34.3,30.26,East,86,4.0,6.0,89,0.00,,,0.00,Wunderground v.1.15,2013-03-18 15:44:00,
2013-03-18 08:49:00,37.5,34.6,30.26,East,85,4.0,6.0,89,0.00,,,0.00,Wunderground v.1.15,2013-03-18 15:49:00,
2013-03-18 08:54:00,37.9,34.9,30.26,East,88,5.0,6.0,89,0.00,,,0.00,Wunderground v.1.15,2013-03-18 15:54:00,
2013-03-18 09:00:00,38.3,35.1,30.25,East,80,5.0,8.0,88,0.00,,,0.00,Wunderground v.1.15,2013-03-18 16:00:00,
2013-03-18 09:05:00,38.7,35.5,30.25,ENE,74,5.0,8.0,88,0.00,,,0.00,Wunderground v.1.15,2013-03-18 16:05:00,
2013-03-18 09:12:00,39.2,35.7,30.25,ENE,72,6.0,8.0,87,0.00,,,0.00,Wunderground v.1.15,2013-03-18 16:12:00,
2013-03-18 09:17:00,39.6,35.8,30.25,ENE,59,6.0,8.0,86,0.00,,,0.00,Wunderground v.1.15,2013-03-18 16:17:00,
2013-03-18 09:23:00,40.0,35.9,30.25,ENE,78,7.0,10.0,85,0.00,,,0.00,Wunderground v.1.15,2013-03-18 16:23:00,
2013-03-18 09:28:00,40.4,36.2,30.25,ENE,64,6.0,11.0,85,0.00,,,0.00,Wunderground v.1.15,2013-03-18 16:28:00,
2013-03-18 09:34:00,40.6,36.1,30.25,ENE,57,7.0,7.0,84,0.00,,,0.00,Wunderground v.1.15,2013-03-18 16:34:00,
2013-03-18 09:39:00,40.7,35.9,30.25,ENE,57,8.0,10.0,83,0.00,,,0.00,Wunderground v.1.15,2013-03-18 16:39:00,
2013-03-18 09:45:00,41.0,35.9,30.25,NE,53,9.0,9.0,82,0.00,,,0.00,Wunderground v.1.15,2013-03-18 16:45:00,
2013-03-18 09:51:00,41.3,36.2,30.25,ENE,75,8.0,9.0,82,0.00,,,0.00,Wunderground v.1.15,2013-03-18 16:51:00,
2013-03-18 09:57:00,41.8,36.7,30.24,East,80,6.0,9.0,82,0.00,,,0.00,Wunderground v.1.15,2013-03-18 16:57:00,
2013-03-18 10:02:00,42.0,36.6,30.24,ENE,78,6.0,10.0,81,0.00,,,0.00,Wunderground v.1.15,2013-03-18 17:02:00,
2013-03-18 10:08:00,41.9,36.2,30.24,East,86,7.0,10.0,80,0.00,,,0.00,Wunderground v.1.15,2013-03-18 17:08:00,
2013-03-18 10:14:00,42.1,36.4,30.24,NE,55,5.0,7.0,80,0.00,,,0.00,Wunderground v.1.15,2013-03-18 17:14:00,
2013-03-18 10:19:00,42.1,36.4,30.24,ENE,72,5.0,8.0,80,0.00,,,0.00,Wunderground v.1.15,2013-03-18 17:19:00,
2013-03-18 10:24:00,42.2,36.8,30.24,ENE,66,5.0,7.0,81,0.00,,,0.00,Wunderground v.1.15,2013-03-18 17:24:00,
2013-03-18 10:30:00,42.7,37.3,30.24,ENE,57,4.0,4.0,81,0.00,,,0.00,Wunderground v.1.15,2013-03-18 17:30:00,
2013-03-18 10:35:00,43.2,37.4,30.24,ENE,61,4.0,5.0,80,0.00,,,0.00,Wunderground v.1.15,2013-03-18 17:35:00,
2013-03-18 10:42:00,43.9,37.5,30.24,ENE,69,4.0,8.0,78,0.00,,,0.00,Wunderground v.1.15,2013-03-18 17:42:00,
2013-03-18 10:47:00,44.2,37.4,30.24,ENE,77,5.0,8.0,77,0.00,,,0.00,Wunderground v.1.15,2013-03-18 17:47:00,
2013-03-18 10:53:00,44.3,37.5,30.24,ENE,61,5.0,10.0,77,0.00,,,0.00,Wunderground v.1.15,2013-03-18 17:53:00,
2013-03-18 10:59:00,44.1,38.0,30.24,ENE,70,7.0,10.0,79,0.00,,,0.00,Wunderground v.1.15,2013-03-18 17:59:00,
2013-03-18 11:05:00,44.4,38.0,30.23,NE,54,8.0,10.0,78,0.00,,,0.00,Wunderground v.1.15,2013-03-18 18:05:00,
2013-03-18 11:10:00,44.7,38.3,30.23,ENE,70,7.0,7.0,78,0.00,,,0.00,Wunderground v.1.15,2013-03-18 18:10:00,
2013-03-18 11:17:00,45.2,37.4,30.23,NE,50,7.0,11.0,74,0.00,,,0.00,Wunderground v.1.15,2013-03-18 18:17:00,
2013-03-18 11:23:00,45.4,36.9,30.23,ENE,70,9.0,12.0,72,0.00,,,0.00,Wunderground v.1.15,2013-03-18 18:23:00,
2013-03-18 11:29:00,45.7,36.8,30.23,NE,56,9.0,12.0,71,0.00,,,0.00,Wunderground v.1.15,2013-03-18 18:29:00,
2013-03-18 11:34:00,45.9,36.7,30.23,ENE,65,9.0,14.0,70,0.00,,,0.00,Wunderground v.1.15,2013-03-18 18:34:00,
2013-03-18 11:40:00,46.1,36.9,30.22,NE,53,10.0,10.0,70,0.00,,,0.00,Wunderground v.1.15,2013-03-18 18:40:00,
2013-03-18 11:45:00,46.7,37.8,30.22,ENE,63,8.0,10.0,71,0.00,,,0.00,Wunderground v.1.15,2013-03-18 18:45:00,
2013-03-18 11:51:00,47.2,38.3,30.22,ENE,61,6.0,7.0,71,0.00,,,0.00,Wunderground v.1.15,2013-03-18 18:51:00,
2013-03-18 11:56:00,47.4,37.7,30.22,NE,49,6.0,7.0,69,0.00,,,0.00,Wunderground v.1.15,2013-03-18 18:56:00,
2013-03-18 12:02:00,47.7,38.0,30.21,ENE,70,6.0,7.0,69,0.00,,,0.00,Wunderground v.1.15,2013-03-18 19:02:00,
2013-03-18 12:07:00,48.2,38.5,30.21,ENE,68,6.0,10.0,69,0.00,,,0.00,Wunderground v.1.15,2013-03-18 19:07:00,
2013-03-18 12:12:00,48.5,38.0,30.21,ENE,62,6.0,7.0,67,0.00,,,0.00,Wunderground v.1.15,2013-03-18 19:12:00,
2013-03-18 12:18:00,47.2,39.3,30.21,North,360,7.0,13.0,74,0.00,,,0.00,Wunderground v.1.15,2013-03-18 19:18:00,
2013-03-18 12:24:00,46.6,39.4,30.20,North,355,10.0,13.0,76,0.00,,,0.00,Wunderground v.1.15,2013-03-18 19:24:00,
2013-03-18 12:29:00,46.0,39.5,30.20,North,360,11.0,13.0,78,0.00,,,0.00,Wunderground v.1.15,2013-03-18 19:29:00,
2013-03-18 12:34:00,45.9,39.8,30.20,NNW,348,12.0,14.0,79,0.00,,,0.00,Wunderground v.1.15,2013-03-18 19:34:00,
2013-03-18 12:39:00,46.1,39.9,30.20,North,360,13.0,14.0,79,0.00,,,0.00,Wunderground v.1.15,2013-03-18 19:39:00,
2013-03-18 12:44:00,46.2,40.0,30.20,NNW,338,13.0,16.0,79,0.00,,,0.00,Wunderground v.1.15,2013-03-18 19:44:00,
2013-03-18 12:50:00,46.2,40.0,30.20,NNW,346,13.0,15.0,79,0.00,,,0.00,Wunderground v.1.15,2013-03-18 19:50:00,
2013-03-18 12:56:00,46.3,40.1,30.20,NNW,348,14.0,15.0,79,0.00,,,0.00,Wunderground v.1.15,2013-03-18 19:56:00,
2013-03-18 13:02:00,46.6,40.8,30.19,NNE,26,13.0,14.0,80,0.00,,,0.00,Wunderground v.1.15,2013-03-18 20:02:00,
2013-03-18 13:07:00,46.3,40.1,30.19,North,360,14.0,17.0,79,0.00,,,0.00,Wunderground v.1.15,2013-03-18 20:07:00,
2013-03-18 13:12:00,46.6,40.8,30.19,North,5,14.0,16.0,80,0.00,,,0.00,Wunderground v.1.15,2013-03-18 20:12:00,
2013-03-18 13:17:00,46.5,40.7,30.18,NNE,22,15.0,17.0,80,0.00,,,0.00,Wunderground v.1.15,2013-03-18 20:17:00,
2013-03-18 13:23:00,46.5,40.7,30.18,North,5,15.0,17.0,80,0.00,,,0.00,Wunderground v.1.15,2013-03-18 20:23:00,
2013-03-18 13:29:00,46.5,40.7,30.18,North,5,15.0,17.0,80,0.00,,,0.00,Wunderground v.1.15,2013-03-18 20:29:00,
2013-03-18 13:34:00,46.8,41.0,30.17,NNW,347,15.0,16.0,80,0.00,,,0.00,Wunderground v.1.15,2013-03-18 20:34:00,
2013-03-18 13:40:00,47.0,41.1,30.17,NNW,346,15.0,16.0,80,0.00,,,0.00,Wunderground v.1.15,2013-03-18 20:40:00,
2013-03-18 13:46:00,47.1,41.2,30.17,NNW,347,15.0,20.0,80,0.00,,,0.00,Wunderground v.1.15,2013-03-18 20:46:00,
2013-03-18 13:51:00,46.8,41.0,30.17,NNW,348,15.0,17.0,80,0.00,,,0.00,Wunderground v.1.15,2013-03-18 20:51:00,
2013-03-18 13:57:00,47.1,41.2,30.17,North,355,15.0,18.0,80,0.00,,,0.00,Wunderground v.1.15,2013-03-18 20:57:00,
2013-03-18 14:03:00,47.0,41.5,30.17,North,355,15.0,19.0,81,0.00,,,0.00,Wunderground v.1.15,2013-03-18 21:03:00,
2013-03-18 14:08:00,47.0,41.5,30.16,North,5,15.0,19.0,81,0.00,,,0.00,Wunderground v.1.15,2013-03-18 21:08:00,
2013-03-18 14:13:00,46.8,41.3,30.16,North,355,16.0,18.0,81,0.00,,,0.00,Wunderground v.1.15,2013-03-18 21:13:00,
2013-03-18 14:19:00,46.8,41.3,30.16,North,350,17.0,21.0,81,0.00,,,0.00,Wunderground v.1.15,2013-03-18 21:19:00,
2013-03-18 14:24:00,46.7,41.2,30.16,North,5,17.0,22.0,81,0.00,,,0.00,Wunderground v.1.15,2013-03-18 21:24:00,
2013-03-18 14:30:00,46.8,41.6,30.15,North,355,17.0,17.0,82,0.00,,,0.00,Wunderground v.1.15,2013-03-18 21:30:00,
2013-03-18 14:36:00,46.8,41.3,30.15,North,5,17.0,21.0,81,0.00,,,0.00,Wunderground v.1.15,2013-03-18 21:36:00,
2013-03-18 14:42:00,46.8,41.6,30.15,North,355,18.0,24.0,82,0.00,,,0.00,Wunderground v.1.15,2013-03-18 21:42:00,
2013-03-18 14:48:00,46.7,41.2,30.14,NE,42,19.0,24.0,81,0.00,,,0.00,Wunderground v.1.15,2013-03-18 21:48:00,
2013-03-18 14:53:00,46.8,41.6,30.14,North,355,18.0,19.0,82,0.00,,,0.00,Wunderground v.1.15,2013-03-18 21:53:00,
2013-03-18 14:59:00,46.7,41.5,30.13,North,360,19.0,22.0,82,0.00,,,0.00,Wunderground v.1.15,2013-03-18 21:59:00,
2013-03-18 15:04:00,46.6,41.4,30.13,North,5,20.0,25.0,82,0.00,,,0.00,Wunderground v.1.15,2013-03-18 22:04:00,
2013-03-18 15:09:00,46.7,41.5,30.13,North,355,19.0,25.0,82,0.00,,,0.00,Wunderground v.1.15,2013-03-18 22:09:00,
2013-03-18 15:15:00,46.8,41.6,30.13,NNW,336,19.0,21.0,82,0.00,,,0.00,Wunderground v.1.15,2013-03-18 22:15:00,
2013-03-18 15:22:00,47.1,41.9,30.13,NNW,346,18.0,20.0,82,0.00,,,0.00,Wunderground v.1.15,2013-03-18 22:22:00,
2013-03-18 15:28:00,47.0,41.8,30.13,North,5,18.0,24.0,82,0.00,,,0.00,Wunderground v.1.15,2013-03-18 22:28:00,
2013-03-18 15:34:00,47.1,42.5,30.13,NNW,346,18.0,21.0,84,0.00,,,0.00,Wunderground v.1.15,2013-03-18 22:34:00,
2013-03-18 15:40:00,47.1,42.5,30.13,NNW,347,17.0,19.0,84,0.00,,,0.00,Wunderground v.1.15,2013-03-18 22:40:00,
2013-03-18 15:47:00,47.2,42.6,30.13,North,11,17.0,19.0,84,0.00,,,0.00,Wunderground v.1.15,2013-03-18 22:47:00,
2013-03-18 15:52:00,47.0,42.1,30.14,NNW,342,17.0,21.0,83,0.00,,,0.00,Wunderground v.1.15,2013-03-18 22:52:00,
2013-03-18 15:57:00,47.1,42.5,30.13,North,355,17.0,21.0,84,0.00,,,0.00,Wunderground v.1.15,2013-03-18 22:57:00,
2013-03-18 16:03:00,47.1,42.5,30.13,North,5,17.0,18.0,84,0.00,,,0.00,Wunderground v.1.15,2013-03-18 23:03:00,
2013-03-18 16:09:00,46.9,42.6,30.12,North,360,17.0,20.0,85,0.00,,,0.00,Wunderground v.1.15,2013-03-18 23:09:00,
2013-03-18 16:15:00,47.0,42.4,30.12,North,355,18.0,21.0,84,0.00,,,0.00,Wunderground v.1.15,2013-03-18 23:15:00,
2013-03-18 16:20:00,46.9,42.3,30.12,NNW,342,19.0,19.0,84,0.00,,,0.00,Wunderground v.1.15,2013-03-18 23:20:00,
2013-03-18 16:25:00,46.9,42.3,30.12,North,5,18.0,22.0,84,0.00,,,0.00,Wunderground v.1.15,2013-03-18 23:25:00,
2013-03-18 16:30:00,46.8,42.5,30.12,North,360,17.0,17.0,85,0.00,,,0.00,Wunderground v.1.15,2013-03-18 23:30:00,
2013-03-18 16:36:00,46.6,42.3,30.12,NNE,32,18.0,21.0,85,0.00,,,0.00,Wunderground v.1.15,2013-03-18 23:36:00,
2013-03-18 16:42:00,46.6,42.3,30.11,North,349,18.0,22.0,85,0.00,,,0.00,Wunderground v.1.15,2013-03-18 23:42:00,
2013-03-18 16:47:00,46.7,42.4,30.11,North,350,16.0,22.0,85,0.00,,,0.00,Wunderground v.1.15,2013-03-18 23:47:00,
2013-03-18 16:52:00,46.7,42.4,30.11,North,350,15.0,19.0,85,0.00,,,0.00,Wunderground v.1.15,2013-03-18 23:52:00,
2013-03-18 16:57:00,46.6,42.3,30.11,North,5,15.0,19.0,85,0.00,,,0.00,Wunderground v.1.15,2013-03-18 23:57:00,
2013-03-18 17:02:00,46.5,42.2,30.10,NNW,343,15.0,15.0,85,0.00,,,0.00,Wunderground v.1.15,2013-03-19 00:02:00,
2013-03-18 17:08:00,46.5,42.2,30.10,NE,35,15.0,19.0,85,0.00,,,0.00,Wunderground v.1.15,2013-03-19 00:08:00,
2013-03-18 17:13:00,46.5,42.2,30.10,NNW,343,17.0,19.0,85,0.00,,,0.00,Wunderground v.1.15,2013-03-19 00:13:00,
2013-03-18 17:19:00,46.5,42.2,30.10,NNE,24,17.0,23.0,85,0.00,,,0.00,Wunderground v.1.15,2013-03-19 00:19:00,
2013-03-18 17:25:00,46.6,42.3,30.10,NNW,345,15.0,22.0,85,0.00,,,0.00,Wunderground v.1.15,2013-03-19 00:25:00,
2013-03-18 17:31:00,46.5,42.5,30.10,North,355,16.0,19.0,86,0.00,,,0.00,Wunderground v.1.15,2013-03-19 00:31:00,
2013-03-18 17:38:00,46.5,42.5,30.10,North,5,15.0,19.0,86,0.00,,,0.00,Wunderground v.1.15,2013-03-19 00:38:00,
2013-03-18 17:44:00,46.5,42.5,30.10,North,355,15.0,18.0,86,0.00,,,0.00,Wunderground v.1.15,2013-03-19 00:44:00,
2013-03-18 17:49:00,46.5,42.5,30.09,North,355,13.0,18.0,86,0.00,,,0.00,Wunderground v.1.15,2013-03-19 00:49:00,
2013-03-18 17:54:00,46.5,42.5,30.09,NNW,345,12.0,16.0,86,0.00,,,0.00,Wunderground v.1.15,2013-03-19 00:54:00,
2013-03-18 18:00:00,46.5,42.8,30.09,NNE,28,11.0,15.0,87,0.00,,,0.00,Wunderground v.1.15,2013-03-19 01:00:00,
2013-03-18 18:06:00,46.5,42.8,30.09,NNW,347,12.0,15.0,87,0.00,,,0.00,Wunderground v.1.15,2013-03-19 01:06:00,
2013-03-18 18:11:00,46.5,43.1,30.09,North,360,11.0,15.0,88,0.00,,,0.00,Wunderground v.1.15,2013-03-19 01:11:00,
2013-03-18 18:17:00,46.5,43.1,30.09,North,355,9.0,15.0,88,0.00,,,0.00,Wunderground v.1.15,2013-03-19 01:17:00,
2013-03-18 18:23:00,46.5,43.1,30.09,NNE,18,8.0,10.0,88,0.00,,,0.00,Wunderground v.1.15,2013-03-19 01:23:00,
2013-03-18 18:29:00,46.5,43.1,30.09,North,10,8.0,11.0,88,0.00,,,0.00,Wunderground v.1.15,2013-03-19 01:29:00,
2013-03-18 18:34:00,46.5,43.1,30.09,North,355,7.0,9.0,88,0.00,,,0.00,Wunderground v.1.15,2013-03-19 01:34:00,
2013-03-18 18:40:00,46.5,43.1,30.09,North,360,6.0,8.0,88,0.00,,,0.00,Wunderground v.1.15,2013-03-19 01:40:00,
2013-03-18 18:46:00,46.5,43.1,30.09,NNE,28,6.0,8.0,88,0.00,,,0.00,Wunderground v.1.15,2013-03-19 01:46:00,
2013-03-18 18:51:00,46.5,43.1,30.09,North,355,5.0,6.0,88,0.00,,,0.00,Wunderground v.1.15,2013-03-19 01:51:00,
2013-03-18 18:56:00,46.5,43.4,30.09,North,9,4.0,6.0,89,0.00,,,0.00,Wunderground v.1.15,2013-03-19 01:56:00,
2013-03-18 19:02:00,46.5,43.4,30.09,North,5,4.0,5.0,89,0.00,,,0.00,Wunderground v.1.15,2013-03-19 02:02:00,
2013-03-18 19:08:00,46.4,43.3,30.09,NE,38,4.0,8.0,89,0.00,,,0.00,Wunderground v.1.15,2013-03-19 02:08:00,
2013-03-18 19:14:00,46.4,43.3,30.09,North,5,4.0,7.0,89,0.00,,,0.00,Wunderground v.1.15,2013-03-19 02:14:00,
2013-03-18 19:19:00,46.4,43.3,30.09,North,5,4.0,7.0,89,0.00,,,0.00,Wunderground v.1.15,2013-03-19 02:19:00,
2013-03-18 19:24:00,46.4,43.6,30.09,NNE,14,4.0,7.0,90,0.00,,,0.00,Wunderground v.1.15,2013-03-19 02:24:00,
2013-03-18 19:29:00,46.3,43.5,30.09,NNE,25,5.0,8.0,90,0.00,,,0.00,Wunderground v.1.15,2013-03-19 02:29:00,
2013-03-18 19:35:00,46.3,43.5,30.09,North,5,4.0,5.0,90,0.00,,,0.00,Wunderground v.1.15,2013-03-19 02:35:00,
2013-03-18 19:41:00,46.3,43.5,30.09,North,5,4.0,5.0,90,0.00,,,0.00,Wunderground v.1.15,2013-03-19 02:41:00,
2013-03-18 19:47:00,46.3,43.5,30.09,NNE,15,3.0,6.0,90,0.00,,,0.00,Wunderground v.1.15,2013-03-19 02:47:00,
2013-03-18 19:53:00,46.2,43.4,30.09,NNE,29,3.0,5.0,90,0.00,,,0.00,Wunderground v.1.15,2013-03-19 02:53:00,
2013-03-18 19:59:00,46.1,43.3,30.08,NNE,22,3.0,6.0,90,0.00,,,0.00,Wunderground v.1.15,2013-03-19 02:59:00,
2013-03-18 20:04:00,46.0,43.2,30.09,NNE,24,3.0,5.0,90,0.00,,,0.00,Wunderground v.1.15,2013-03-19 03:04:00,
2013-03-18 20:10:00,45.9,43.1,30.08,NNE,24,2.0,5.0,90,0.00,,,0.00,Wunderground v.1.15,2013-03-19 03:10:00,
2013-03-18 20:15:00,45.8,43.0,30.08,NNE,24,2.0,5.0,90,0.00,,,0.00,Wunderground v.1.15,2013-03-19 03:15:00,
2013-03-18 20:21:00,45.7,42.9,30.08,NNE,24,2.0,5.0,90,0.00,,,0.00,Wunderground v.1.15,2013-03-19 03:21:00,
2013-03-18 20:27:00,45.6,42.5,30.08,NNE,24,1.0,5.0,89,0.00,,,0.00,Wunderground v.1.15,2013-03-19 03:27:00,
2013-03-18 20:32:00,45.6,42.5,30.08,NNE,24,1.0,5.0,89,0.00,,,0.00,Wunderground v.1.15,2013-03-19 03:32:00,
2013-03-18 20:38:00,45.8,43.0,30.08,NNE,24,1.0,5.0,90,0.00,,,0.00,Wunderground v.1.15,2013-03-19 03:38:00,
2013-03-18 20:43:00,45.8,43.0,30.08,NNE,24,0.0,5.0,90,0.00,,,0.00,Wunderground v.1.15,2013-03-19 03:43:00,
2013-03-18 20:48:00,45.8,43.0,30.08,NNE,24,1.0,5.0,90,0.00,,,0.00,Wunderground v.1.15,2013-03-19 03:48:00,
2013-03-18 20:54:00,45.8,43.0,30.08,NNE,24,1.0,5.0,90,0.00,,,0.00,Wunderground v.1.15,2013-03-19 03:54:00,
2013-03-18 21:00:00,45.8,43.0,30.08,NNE,24,1.0,5.0,90,0.00,,,0.00,Wunderground v.1.15,2013-03-19 04:00:00,
2013-03-18 21:02:00,45.8,43.0,30.08,NNE,24,1.0,5.0,90,0.00,,,0.00,Wunderground v.1.15,2013-03-19 04:02:00,
2013-03-18 21:03:00,45.8,43.0,30.08,NNE,24,1.0,5.0,90,0.00,,,0.00,Wunderground v.1.15,2013-03-19 04:03:00,
2013-03-18 21:04:00,45.8,43.0,30.08,NNE,24,1.0,5.0,90,0.00,,,0.00,Wunderground v.1.15,2013-03-19 04:04:00,
2013-03-18 21:09:00,45.6,42.8,30.08,NNE,24,1.0,5.0,90,0.00,,,0.00,Wunderground v.1.15,2013-03-19 04:09:00,
2013-03-18 21:15:00,45.6,42.8,30.08,NNE,24,1.0,5.0,90,0.00,,,0.00,Wunderground v.1.15,2013-03-19 04:15:00,
2013-03-18 21:20:00,45.5,42.7,30.08,NNE,24,1.0,5.0,90,0.00,,,0.00,Wunderground v.1.15,2013-03-19 04:20:00,
2013-03-18 21:25:00,45.4,42.6,30.07,NNE,24,1.0,5.0,90,0.00,,,0.00,Wunderground v.1.15,2013-03-19 04:25:00,
2013-03-18 21:31:00,45.4,42.6,30.07,NNE,24,1.0,5.0,90,0.00,,,0.00,Wunderground v.1.15,2013-03-19 04:31:00,
2013-03-18 21:37:00,45.4,42.6,30.07,NNE,24,1.0,5.0,90,0.00,,,0.00,Wunderground v.1.15,2013-03-19 04:37:00,
2013-03-18 21:43:00,45.3,42.5,30.07,NNE,24,1.0,5.0,90,0.00,,,0.00,Wunderground v.1.15,2013-03-19 04:43:00,
2013-03-18 21:48:00,45.2,42.4,30.07,NNE,24,0.0,5.0,90,0.00,,,0.00,Wunderground v.1.15,2013-03-19 04:48:00,
2013-03-18 21:53:00,45.1,42.3,30.07,NNE,24,0.0,5.0,90,0.00,,,0.00,Wunderground v.1.15,2013-03-19 04:53:00,
2013-03-18 21:59:00,45.1,42.3,30.07,NNE,24,0.0,5.0,90,0.00,,,0.00,Wunderground v.1.15,2013-03-19 04:59:00,
2013-03-18 22:04:00,45.1,42.3,30.07,NNE,24,1.0,5.0,90,0.00,,,0.00,Wunderground v.1.15,2013-03-19 05:04:00,
2013-03-18 22:09:00,45.1,42.3,30.06,NNE,24,1.0,5.0,90,0.00,,,0.00,Wunderground v.1.15,2013-03-19 05:09:00,
2013-03-18 22:15:00,45.1,42.3,30.06,NNE,24,1.0,5.0,90,0.00,,,0.00,Wunderground v.1.15,2013-03-19 05:15:00,
2013-03-18 22:20:00,45.2,42.4,30.06,NNE,24,1.0,5.0,90,0.00,,,0.00,Wunderground v.1.15,2013-03-19 05:20:00,
2013-03-18 22:27:00,45.1,42.3,30.06,NNE,24,1.0,5.0,90,0.00,,,0.00,Wunderground v.1.15,2013-03-19 05:27:00,
2013-03-18 22:32:00,45.1,42.3,30.06,NNE,24,1.0,5.0,90,0.00,,,0.00,Wunderground v.1.15,2013-03-19 05:32:00,
2013-03-18 22:38:00,45.2,42.4,30.06,NNE,24,1.0,5.0,90,0.00,,,0.00,Wunderground v.1.15,2013-03-19 05:38:00,
2013-03-18 22:43:00,45.2,42.4,30.06,NNE,24,1.0,5.0,90,0.00,,,0.00,Wunderground v.1.15,2013-03-19 05:43:00,
2013-03-18 22:48:00,45.1,42.3,30.06,NNE,24,1.0,5.0,90,0.00,,,0.00,Wunderground v.1.15,2013-03-19 05:48:00,
2013-03-18 22:53:00,45.0,42.2,30.06,NNE,24,0.0,5.0,90,0.00,,,0.00,Wunderground v.1.15,2013-03-19 05:53:00,
2013-03-18 22:59:00,45.0,42.2,30.06,NNE,24,0.0,5.0,90,0.00,,,0.00,Wunderground v.1.15,2013-03-19 05:59:00,
2013-03-18 23:05:00,45.0,42.2,30.06,NNE,24,0.0,5.0,90,0.00,,,0.00,Wunderground v.1.15,2013-03-19 06:05:00,
2013-03-18 23:11:00,45.0,42.5,30.06,NNE,24,1.0,5.0,91,0.00,,,0.00,Wunderground v.1.15,2013-03-19 06:11:00,
2013-03-18 23:16:00,45.0,42.5,30.06,NNE,24,2.0,5.0,91,0.00,,,0.00,Wunderground v.1.15,2013-03-19 06:16:00,
2013-03-18 23:22:00,45.0,42.2,30.06,NE,40,3.0,5.0,90,0.00,,,0.00,Wunderground v.1.15,2013-03-19 06:22:00,
2013-03-18 23:28:00,44.9,42.1,30.07,NE,40,3.0,5.0,90,0.00,,,0.00,Wunderground v.1.15,2013-03-19 06:28:00,
2013-03-18 23:34:00,44.7,41.9,30.06,ESE,119,2.0,5.0,90,0.00,,,0.00,Wunderground v.1.15,2013-03-19 06:34:00,
2013-03-18 23:39:00,44.5,41.7,30.06,ESE,119,2.0,5.0,90,0.00,,,0.00,Wunderground v.1.15,2013-03-19 06:39:00,
2013-03-18 23:45:00,44.4,41.7,30.06,ESE,119,2.0,5.0,90,0.00,,,0.00,Wunderground v.1.15,2013-03-19 06:45:00,
2013-03-18 23:51:00,44.4,41.9,30.06,ESE,120,3.0,5.0,91,0.00,,,0.00,Wunderground v.1.15,2013-03-19 06:51:00,
2013-03-18 23:57:00,44.6,42.1,30.06,SSE,149,3.0,5.0,91,0.00,,,0.00,Wunderground v.1.15,2013-03-19 06:57:00,